Location: Unspecified
(0.0000°N, 0.0000°E)
Time: 14:39:45
(UTC+00:00)

FREGAT DEB - Visible Passes

Search period start: 06 December 2025 00:00
Search period end: 16 December 2025 00:00
Orbit: 850 x 2801 km, 50.7° (Epoch: 12 April)

Date Brightness Start Highest point End Pass type
(mag) Time Alt. Az. Time Alt. Az. Time Alt. Az.
06 Dec ? 18:21:50 10° NNE 18:28:08 14° NE 18:33:09 11° ENE visible
06 Dec ? 20:24:05 10° NNW 20:33:34 49° N 20:33:34 49° N visible
07 Dec ? 18:22:49 10° N 18:31:22 19° NE 18:38:21 11° E visible
07 Dec ? 20:26:41 10° NNW 20:38:50 76° N 20:38:50 76° N visible
07 Dec ? 22:39:06 10° W 22:39:19 10° W 22:39:19 10° W visible
08 Dec ? 18:24:12 10° N 18:34:22 24° NE 18:42:44 10° E visible
08 Dec ? 20:29:16 10° NW 20:42:21 82° SW 20:45:21 53° SSE visible
08 Dec ? 22:44:08 10° W 22:54:17 - SSW 22:46:03 12° WSW visible
09 Dec ? 18:25:44 10° N 18:37:07 30° NE 18:46:13 10° ESE visible
09 Dec ? 20:31:49 10° NW 20:44:41 68° WSW 20:53:47 10° SSE visible
10 Dec ? 18:27:19 10° NNW 18:39:39 37° NE 18:49:15 10° ESE visible
10 Dec ? 20:34:22 10° NW 20:46:49 55° WSW 20:55:46 10° SSE visible
11 Dec ? 18:28:54 10° NNW 18:41:58 45° NE 18:51:55 10° ESE visible
11 Dec ? 20:36:55 10° NW 20:48:46 44° WSW 20:57:28 10° SSE visible
12 Dec ? 18:30:28 10° NNW 18:44:04 54° NE 18:54:15 10° SE visible
12 Dec ? 20:39:31 10° WNW 20:50:32 35° WSW 20:58:53 10° S visible
13 Dec ? 18:31:59 10° NNW 18:45:57 66° NE 18:56:18 10° SE visible
13 Dec ? 20:42:11 10° WNW 20:52:11 28° WSW 21:00:00 10° S visible
14 Dec ? 18:33:28 10° NNW 18:47:38 78° NE 18:58:03 10° SE visible
14 Dec ? 20:45:00 10° WNW 20:53:41 22° WSW 21:00:44 10° S visible
15 Dec ? 18:34:55 10° NW 18:49:06 89° SW 18:59:33 10° SE visible
15 Dec ? 20:48:06 10° W 20:55:05 17° WSW 21:00:59 10° SSW visible
